Weather History for St. Francis, KS

Change the Weather History Date:

Friday, November 30, 2012

  Actual Average Record
Temperature  
Mean Temperature 46 °F -  
Max Temperature 66 °F 47 °F 63 °F (2013)
Min Temperature 27 °F 20 °F 13 °F (2014)
Degree Days  
Heating Degree Days 18    
Moisture  
Dew Point 15 °F    
Average Humidity 36    
Maximum Humidity 65    
Minimum Humidity 8    
Precipitation  
Precipitation 0.00 in - - ()
Sea Level Pressure  
Sea Level Pressure 29.96 in    
Wind  
Wind Speed 8 mph ()    
Max Wind Speed 23 mph    
Max Gust Speed 28 mph    
Visibility 10.0 miles    
Events      
Averages and records for this station are not official NWS values.
T = Trace of Precipitation, MM = Missing Value Source: Averaged Metar Reports

Daily Weather History Graph

Daily Weather History Graph

Search for Another Location

Airport:

Trip Planner

Search our weather history database for the weather conditions in past years. The results will help you decide how hot, cold, wet, or windy it might be!

Date:

Astronomy

Nov. 30, 2012 Rise Set
Actual Time 7:48 AM CST 5:23 PM CST
Civil Twilight 7:18 AM CST 5:53 PM CST
Nautical Twilight 6:45 AM CST 6:26 PM CST
Astronomical Twilight 6:12 AM CST 6:59 PM CST
Moon 7:19 PM CST (11/30) 9:22 AM CST (11/30)
Length of Visible Light 10h 34m
Length of Day
9h 34m
Waning Gibbous, 96% of the Moon is Illuminated
Nov 30
Waning Gibbous
Dec 6
Last Quarter
Dec 13
New
Dec 19
First Quarter
Dec 28
Full

Hourly Weather History & Observations

Time (CST) Temp. Windchill Dew Point Humidity Pressure Visibility Wind Dir Wind Speed Gust Speed Precip Events Conditions
12:15 AM 37.8 °F 32.5 °F 12.4 °F 35% 30.04 in 10.0 mi SW 6.9 mph - N/A   Clear
12:35 AM 36.3 °F 31.6 °F 12.6 °F 38% 30.05 in 10.0 mi WSW 5.8 mph - N/A   Clear
12:55 AM 35.8 °F 30.1 °F 13.1 °F 39% 30.04 in 10.0 mi SW 6.9 mph - N/A   Clear
1:15 AM 35.4 °F 30.5 °F 13.5 °F 41% 30.04 in 10.0 mi WSW 5.8 mph - N/A   Clear
1:35 AM 34.7 °F 29.6 °F 13.1 °F 41% 30.03 in 10.0 mi WSW 5.8 mph - N/A   Clear
1:55 AM 32.0 °F 26.4 °F 13.3 °F 46% 30.03 in 10.0 mi WSW 5.8 mph - N/A   Clear
2:15 AM 32.0 °F 25.6 °F 13.5 °F 46% 30.03 in 10.0 mi WSW 6.9 mph - N/A   Clear
2:35 AM 30.7 °F 26.0 °F 13.1 °F 48% 30.03 in 10.0 mi WSW 4.6 mph - N/A   Clear
2:55 AM 30.9 °F 25.2 °F 13.1 °F 48% 30.03 in 10.0 mi WSW 5.8 mph - N/A   Clear
3:15 AM 30.4 °F - 13.8 °F 50% 30.04 in 10.0 mi Calm Calm - N/A   Clear
3:35 AM 30.2 °F 22.6 °F 13.6 °F 50% 30.04 in 10.0 mi WSW 8.1 mph - N/A   Clear
3:55 AM 28.9 °F 20.4 °F 13.5 °F 52% 30.04 in 10.0 mi WSW 9.2 mph - N/A   Clear
4:15 AM 29.5 °F 21.8 °F 15.1 °F 55% 30.04 in 10.0 mi WSW 8.1 mph - N/A   Clear
4:35 AM 30.2 °F 21.9 °F 15.8 °F 55% 30.03 in 10.0 mi SW 9.2 mph - N/A   Clear
4:55 AM 30.7 °F 23.3 °F 16.2 °F 55% 30.04 in 10.0 mi WSW 8.1 mph - N/A   Clear
5:15 AM 29.8 °F 23.0 °F 16.0 °F 56% 30.04 in 10.0 mi WSW 6.9 mph - N/A   Clear
5:35 AM 27.9 °F 19.1 °F 15.6 °F 60% 30.04 in 10.0 mi WSW 9.2 mph - N/A   Clear
5:55 AM 28.4 °F 21.2 °F 15.4 °F 58% 30.04 in 10.0 mi SW 6.9 mph - N/A   Clear
6:15 AM 28.4 °F 19.7 °F 16.3 °F 61% 30.05 in 10.0 mi WSW 9.2 mph - N/A   Clear
6:35 AM 28.4 °F 19.1 °F 16.0 °F 60% 30.05 in 10.0 mi SW 10.4 mph - N/A   Clear
6:55 AM 27.5 °F 19.3 °F 16.2 °F 62% 30.05 in 10.0 mi SW 8.1 mph - N/A   Clear
7:15 AM 28.4 °F 21.2 °F 16.7 °F 62% 30.06 in 10.0 mi WSW 6.9 mph - N/A   Clear
7:35 AM 28.2 °F 19.5 °F 16.7 °F 62% 30.06 in 10.0 mi SW 9.2 mph - N/A   Clear
7:55 AM 27.3 °F 22.0 °F 16.7 °F 64% 30.05 in 10.0 mi SW 4.6 mph - N/A   Clear
8:15 AM 27.5 °F - 17.1 °F 65% 30.05 in 10.0 mi Calm Calm - N/A   Clear
8:35 AM 31.3 °F - 18.7 °F 60% 30.05 in 10.0 mi Calm Calm - N/A   Clear
8:55 AM 32.0 °F - 18.7 °F 58% 30.04 in 10.0 mi Calm Calm - N/A   Clear
9:15 AM 32.9 °F - 18.5 °F 55% 30.04 in 10.0 mi Calm Calm - N/A   Clear
9:35 AM 34.7 °F 31.8 °F 18.7 °F 52% 30.04 in 10.0 mi WSW 3.5 mph - N/A   Clear
9:55 AM 41.4 °F 39.4 °F 22.6 °F 47% 30.04 in 10.0 mi SSE 3.5 mph - N/A   Clear
10:15 AM 47.7 °F - 22.6 °F 37% 30.03 in 10.0 mi SE 6.9 mph - N/A   Clear
10:35 AM 48.9 °F - 21.7 °F 34% 30.03 in 10.0 mi SE 4.6 mph - N/A   Clear
10:55 AM 51.6 °F - 20.5 °F 29% 30.03 in 10.0 mi ESE 3.5 mph - N/A   Clear
11:15 AM 54.9 °F - 17.2 °F 23% 30.03 in 10.0 mi South 8.1 mph - N/A   Clear
11:35 AM 57.4 °F - 16.2 °F 20% 30.02 in 10.0 mi SSE 6.9 mph - N/A   Clear
11:55 AM 61.0 °F - 7.7 °F 12% 30.00 in 10.0 mi SSE 15.0 mph 18.4 mph N/A   Clear
12:15 PM 62.2 °F - 5.4 °F 10% 29.98 in 10.0 mi SSE 15.0 mph - N/A   Clear
12:35 PM 63.7 °F - 2.8 °F 9% 29.97 in 10.0 mi South 16.1 mph - N/A   Clear
12:55 PM 64.4 °F - 2.3 °F 8% 29.96 in 10.0 mi SSE 15.0 mph 19.6 mph N/A   Clear
1:15 PM 64.2 °F - 1.9 °F 8% 29.94 in 10.0 mi SE 17.3 mph 21.9 mph N/A   Clear
1:35 PM 64.8 °F - 1.4 °F 8% 29.92 in 10.0 mi SSE 18.4 mph 24.2 mph N/A   Clear
1:55 PM 65.1 °F - 2.1 °F 8% 29.91 in 10.0 mi SSE 18.4 mph 24.2 mph N/A   Clear
2:15 PM 65.5 °F - 2.8 °F 8% 29.89 in 10.0 mi SSE 23.0 mph 27.6 mph N/A   Clear
2:35 PM 66.2 °F - 4.5 °F 9% 29.88 in 10.0 mi South 19.6 mph 25.3 mph N/A   Clear
2:55 PM 65.8 °F - 4.5 °F 9% 29.88 in 10.0 mi SSE 19.6 mph 25.3 mph N/A   Clear
3:15 PM 65.5 °F - 5.2 °F 9% 29.87 in 10.0 mi SSE 19.6 mph - N/A   Clear
3:35 PM 65.5 °F - 6.1 °F 10% 29.87 in 10.0 mi SSE 17.3 mph 24.2 mph N/A   Clear
3:55 PM 65.5 °F - 7.2 °F 10% 29.86 in 10.0 mi SSE 18.4 mph 24.2 mph N/A   Clear
4:15 PM 64.4 °F - 8.6 °F 11% 29.86 in 10.0 mi SSE 15.0 mph 20.7 mph N/A   Clear
4:35 PM 63.3 °F - 9.9 °F 12% 29.87 in 10.0 mi South 13.8 mph - N/A   Clear
4:55 PM 61.0 °F - 11.1 °F 14% 29.87 in 10.0 mi South 13.8 mph - N/A   Clear
5:15 PM 57.6 °F - 12.6 °F 17% 29.88 in 10.0 mi SSE 12.7 mph - N/A   Clear
5:35 PM 56.3 °F - 11.8 °F 17% 29.88 in 10.0 mi SSE 15.0 mph - N/A   Clear
5:55 PM 56.1 °F - 12.0 °F 17% 29.87 in 10.0 mi SSE 17.3 mph 23.0 mph N/A   Clear
6:15 PM 56.1 °F - 12.0 °F 17% 29.87 in 10.0 mi SSE 18.4 mph 25.3 mph N/A   Clear
6:35 PM 54.7 °F - 12.7 °F 19% 29.87 in 10.0 mi SSE 17.3 mph - N/A   Clear
6:55 PM 50.9 °F - 13.6 °F 23% 29.87 in 10.0 mi SSE 15.0 mph - N/A   Clear
7:15 PM 49.1 °F - 13.8 °F 24% 29.86 in 10.0 mi SSE 13.8 mph - N/A   Clear
7:35 PM 49.5 °F - 14.0 °F 24% 29.86 in 10.0 mi South 15.0 mph - N/A   Clear
7:55 PM 50.0 °F - 14.0 °F 24% 29.85 in 10.0 mi SSE 16.1 mph - N/A   Clear
8:15 PM 49.3 °F - 14.5 °F 25% 29.85 in 10.0 mi South 13.8 mph - N/A   Clear
8:35 PM 48.9 °F - 15.8 °F 27% 29.85 in 10.0 mi SSE 11.5 mph - N/A   Clear
8:55 PM 47.8 °F - 17.4 °F 30% 29.86 in 10.0 mi SSW 5.8 mph - N/A   Clear
9:15 PM 46.4 °F 43.5 °F 18.1 °F 32% 29.86 in 10.0 mi SSW 5.8 mph - N/A   Clear
9:35 PM 45.5 °F 43.2 °F 19.2 °F 35% 29.85 in 10.0 mi SSW 4.6 mph - N/A   Clear
9:55 PM 46.9 °F - 25.7 °F 44% 29.84 in 10.0 mi South 10.4 mph - N/A   Clear
10:15 PM 50.0 °F - 28.2 °F 43% 29.84 in 10.0 mi South 12.7 mph - N/A   Clear
10:35 PM 49.3 °F - 29.5 °F 46% 29.84 in 10.0 mi SSW 11.5 mph - N/A   Clear
10:55 PM 47.8 °F - 30.0 °F 50% 29.83 in 10.0 mi South 10.4 mph - N/A   Clear
11:15 PM 46.4 °F 42.4 °F 30.2 °F 53% 29.84 in 10.0 mi SSW 8.1 mph - N/A   Clear
11:35 PM 45.1 °F 41.4 °F 30.4 °F 56% 29.83 in 10.0 mi South 6.9 mph - N/A   Clear
11:55 PM 44.1 °F 42.5 °F 30.6 °F 59% 29.83 in 10.0 mi South 3.5 mph - N/A   Clear